[[{"header":{"parameterUnit":"m.s-1","parameterCategory":1,"la1":30.2991,"la2":30.254,"lo1":-89.0895,"lo2":-89.0444,"dy":0.0017,"dx":0.0017,"nx":28,"ny":28,"refTime":"2024-10-08T03:00:00:Z","depth":0,"parameterNumber":2,"parameterNumberName":"U-component_of_WINDS"},"data":[0,0,0,0,0,0,0,0,0,0,0,0,0,0,0,0,0,0,0,0,0,0,0,0,0,0,0,0,0,0,0,0,0,0,0,0,0,0,0,0,0,0,0,0,0,0,0,0,0,0,0,0,0,0,0,0,0,0,-0.4992,-0.4993,0,-0.5068,-0.5069,-0.5069,-0.5083,-0.5082,-0.5082,-0.5081,-0.5161,-0.5164,-0.5166,0,0,0,0,0,0,0,0,0,0,0,0,0,-0.4861,-0.4864,-0.4992,-0.4993,-0.4994,-0.5068,-0.5069,-0.507,-0.5083,-0.5082,-0.5082,-0.5081,-0.516,-0.5163,-0.5167,0,0,0,0,0,0,0,0,0,0,0,0,0,-0.4926,-0.4864,-0.4992,-0.5009,-0.5012,-0.5067,-0.5069,-0.507,-0.5083,-0.5082,-0.5081,-0.5081,-0.5159,-0.5163,-0.5167,-0.5211,0,0,-0.5179,-0.5181,0,0,0,0,0,0,0,0,-0.4922,-0.493,-0.5006,-0.5008,-0.5011,-0.5065,-0.5052,-0.5117,-0.5084,-0.5056,-0.5081,-0.508,-0.513,-0.5136,-0.5153,-0.5215,-0.5218,-0.518,-0.5182,-0.5184,-0.5185,0,0,0,0,0,0,0,-0.4918,-0.4927,-0.5022,-0.5007,-0.501,-0.5014,-0.5022,-0.5064,-0.5098,-0.5059,-0.506,-0.5068,-0.5131,-0.5149,-0.5155,-0.5219,-0.518,-0.5183,-0.5186,-0.5187,-0.5322,-0.5323,0,0,0,0,0,0,-0.491,-0.4923,-0.502,-0.5024,-0.4963,-0.5017,-0.5026,-0.5049,-0.5097,-0.5104,-0.5069,-0.5069,-0.5142,-0.515,-0.5158,-0.5213,-0.5184,-0.5188,-0.519,-0.5321,-0.5322,-0.5323,0,0,0,0,0,0,-0.4907,-0.4918,-0.5017,-0.4974,-0.4987,-0.5021,-0.5045,-0.5051,-0.5068,-0.5105,-0.5111,-0.5081,-0.5142,-0.5152,-0.5198,-0.5216,-0.519,-0.5193,-0.5319,-0.5321,-0.5323,-0.5323,0,0,0,0,0,0,-0.4903,-0.4917,-0.4934,-0.4974,-0.4989,-0.5055,-0.5047,-0.5053,-0.5075,-0.5075,-0.5118,-0.5124,-0.5142,-0.5191,-0.5202,-0.5221,-0.5197,-0.5318,-0.532,-0.5322,-0.5322,-0.5325,-0.5327,0,0,0,0,0,-0.4898,-0.4931,-0.4934,-0.4946,-0.5011,-0.5056,-0.5064,-0.5084,-0.5076,-0.5094,-0.5117,-0.5123,-0.5212,-0.5196,-0.5208,-0.5228,-0.5317,-0.5319,-0.5322,-0.5321,-0.5324,-0.5327,0,0,0,0,0,0,-0.4893,-0.4937,-0.4941,-0.4988,-0.5018,-0.5058,-0.5081,-0.5087,-0.512,-0.5119,-0.5142,-0.5152,-0.5197,-0.5217,-0.5198,-0.5274,-0.5264,-0.5269,-0.5259,-0.5263,-0.5265,-0.526,-0.52,0,0,0,0,0,-0.4897,-0.4929,-0.4966,-0.5004,-0.5019,-0.5047,-0.5067,-0.5079,-0.5112,-0.5125,-0.5152,-0.5184,-0.5219,-0.5242,-0.5276,-0.5324,-0.5334,-0.5344,-0.5347,-0.5349,-0.5354,-0.5381,-0.5386,-0.5332,-0.5332,-0.5331,0,0,-0.4906,-0.4934,-0.4953,-0.5004,-0.5028,-0.5062,-0.5058,-0.5093,-0.5119,-0.5131,-0.5175,-0.5196,-0.5233,-0.528,-0.5303,-0.5299,-0.5371,-0.5352,-0.5354,-0.5357,-0.5384,-0.5389,-0.5394,-0.5333,-0.5333,-0.5333,0,0,-0.494,-0.4964,-0.4998,-0.5023,-0.506,-0.5078,-0.5086,-0.5125,-0.514,-0.5185,-0.5194,-0.5225,-0.5285,-0.5311,-0.5332,-0.5375,-0.5382,-0.5386,-0.5401,-0.5427,-0.5432,-0.5436,-0.5452,-0.5457,-0.539,-0.539,-0.539,0,-0.4947,-0.4997,-0.5016,-0.5051,-0.5073,-0.5084,-0.512,-0.5143,-0.5189,-0.5205,-0.5199,-0.5275,-0.5301,-0.5354,-0.5365,-0.5381,-0.5392,-0.5382,-0.5429,-0.5433,-0.5437,-0.5453,-0.5459,-0.539,-0.539,-0.539,-0.539,0,-0.5004,-0.5039,-0.5063,-0.5107,-0.5131,-0.5167,-0.5191,-0.5214,-0.5223,-0.5243,-0.5289,-0.5319,-0.536,-0.5374,-0.5384,-0.5429,-0.5426,-0.5424,-0.5415,-0.5443,-0.5458,-0.5464,-0.539,-0.539,-0.539,-0.539,0,0,-0.5039,-0.5091,-0.51,-0.512,-0.5161,-0.5189,-0.5224,-0.5264,-0.5283,-0.5315,-0.5346,-0.5396,-0.5395,-0.5419,-0.5432,-0.5455,-0.5488,-0.5451,-0.5452,-0.5458,-0.5541,-0.5542,-0.5549,-0.5492,-0.5493,-0.5494,-0.5538,0,-0.5078,-0.5142,-0.5159,-0.5213,-0.5246,-0.5256,-0.5288,-0.5317,-0.5335,-0.5366,-0.5387,-0.5422,-0.5418,-0.5432,-0.5456,-0.5479,-0.5505,-0.5476,-0.5522,-0.5524,-0.5514,-0.5557,-0.5559,-0.5599,-0.5544,-0.5545,-0.5546,0,-0.5134,-0.5165,-0.5223,-0.5259,-0.5274,-0.5302,-0.5339,-0.5368,-0.5401,-0.5413,-0.5439,-0.545,-0.5488,-0.5476,-0.553,-0.5509,-0.5529,-0.5543,-0.5545,-0.5552,-0.5537,-0.5565,-0.5612,-0.5618,-0.5555,-0.5554,-0.5554,0,-0.5154,-0.5211,-0.5253,-0.527,-0.5313,-0.5333,-0.5352,-0.5384,-0.5406,-0.5439,-0.5454,-0.5491,-0.5511,-0.554,-0.5561,-0.555,-0.5613,-0.5602,-0.5625,-0.5624,-0.5639,-0.5638,-0.569,-0.5649,-0.5649,-0.5649,-0.5649,0,-0.5198,-0.5232,-0.5262,-0.5288,-0.5328,-0.5347,-0.5386,-0.5406,-0.5434,-0.5464,-0.5475,-0.5504,-0.5529,-0.556,-0.5577,-0.5619,-0.5628,-0.5639,-0.5644,-0.5639,-0.5638,-0.5654,-0.5652,-0.5651,-0.565,-0.565,-0.565,0,-0.5228,-0.5249,-0.5295,-0.5332,-0.5343,-0.537,-0.5402,-0.5428,-0.5446,-0.5485,-0.5495,-0.5524,-0.5562,-0.5585,-0.5633,-0.5644,-0.5691,-0.5694,-0.568,-0.5682,-0.5704,-0.5702,-0.577,-0.578,-0.5731,-0.5731,-0.5731,0,-0.5255,-0.5282,-0.5321,-0.5342,-0.5361,-0.5395,-0.5417,-0.5437,-0.5461,-0.55,-0.5521,-0.5559,-0.5592,-0.5652,-0.5678,-0.5715,-0.5719,-0.574,-0.5725,-0.572,-0.5721,-0.572,-0.5723,-0.5743,-0.5744,-0.5744,-0.5744,0,-0.5301,-0.531,-0.5342,-0.5377,-0.5404,-0.5433,-0.5462,-0.5479,-0.5504,-0.5529,-0.5568,-0.5592,-0.5641,-0.568,-0.5719,-0.5739,-0.5747,-0.5749,-0.5756,-0.5753,-0.5744,-0.575,-0.5689,-0.5747,-0.5747,-0.5747,-0.5747,-0.5747,-0.5331,-0.5356,-0.5387,-0.5423,-0.5446,-0.5473,-0.5499,-0.552,-0.5552,-0.5593,-0.5603,-0.5644,-0.5676,-0.5729,-0.5751,-0.5783,-0.578,-0.5791,-0.5794,-0.5796,-0.5797,-0.5737,-0.579,-0.579,-0.579,-0.579,-0.579,0,-0.5379,-0.5399,-0.5431,-0.5471,-0.5499,-0.5502,-0.5534,-0.5557,-0.5593,-0.5622,-0.5653,-0.5697,-0.5734,-0.5763,-0.5801,-0.5821,-0.5826,-0.5831,-0.583,-0.5835,-0.5797,-0.5788,-0.5827,-0.5827,-0.5827,-0.5827,-0.5827,-0.5827,-0.5407,-0.5449,-0.5461,-0.5515,-0.5536,-0.5575,-0.5593,-0.5618,-0.5642,-0.5691,-0.5721,-0.5739,-0.5768,-0.5808,-0.5843,-0.585,-0.5864,-0.5869,-0.5877,-0.5842,-0.5838,-0.5834,-0.5825,-0.5872,-0.5872,-0.5913,-0.5913,-0.5913]},{"header":{"parameterUnit":"m.s-1","parameterCategory":1,"la1":30.2991,"la2":30.254,"lo1":-89.0895,"lo2":-89.0444,"dy":0.0017,"dx":0.0017,"nx":28,"ny":28,"refTime":"2024-10-08T03:00:00:Z","depth":0,"parameterNumber":3,"parameterNumberName":"V-component_of_WINDS"},"data":[0,0,0,0,0,0,0,0,0,0,0,0,0,0,0,0,0,0,0,0,0,0,0,0,0,0,0,0,0,0,0,0,0,0,0,0,0,0,0,0,0,0,0,0,0,0,0,0,0,0,0,0,0,0,0,0,0,0,-4.794,-4.7941,0,-4.801,-4.801,-4.8011,-4.7944,-4.7941,-4.7939,-4.7936,-4.8003,-4.8007,-4.8012,0,0,0,0,0,0,0,0,0,0,0,0,0,-4.7746,-4.775,-4.794,-4.7941,-4.7942,-4.8009,-4.801,-4.8011,-4.7944,-4.7941,-4.7938,-4.7935,-4.8002,-4.8007,-4.8012,0,0,0,0,0,0,0,0,0,0,0,0,0,-4.7824,-4.7751,-4.794,-4.7917,-4.7915,-4.8009,-4.801,-4.8012,-4.7945,-4.7941,-4.7937,-4.7933,-4.8,-4.8006,-4.8013,-4.8132,0,0,-4.8032,-4.8035,0,0,0,0,0,0,0,0,-4.782,-4.7831,-4.7919,-4.7918,-4.7917,-4.7964,-4.7966,-4.8052,-4.7946,-4.7934,-4.7936,-4.7931,-4.7993,-4.8,-4.8022,-4.8135,-4.8138,-4.8033,-4.8037,-4.8039,-4.8041,0,0,0,0,0,0,0,-4.7814,-4.7828,-4.7967,-4.792,-4.7919,-4.7901,-4.7908,-4.7982,-4.7985,-4.7934,-4.793,-4.7939,-4.7992,-4.8016,-4.8023,-4.8139,-4.8033,-4.8038,-4.8042,-4.8045,-4.8355,-4.8359,0,0,0,0,0,0,-4.7812,-4.7824,-4.7965,-4.7969,-4.7858,-4.7908,-4.7916,-4.7953,-4.7984,-4.7985,-4.7942,-4.7936,-4.8007,-4.8015,-4.8025,-4.8167,-4.8039,-4.8045,-4.8049,-4.835,-4.8356,-4.836,0,0,0,0,0,0,-4.7808,-4.7825,-4.7962,-4.7895,-4.7912,-4.7916,-4.7958,-4.7956,-4.798,-4.799,-4.799,-4.7967,-4.8004,-4.8016,-4.8106,-4.8169,-4.8048,-4.8054,-4.8345,-4.8352,-4.8358,-4.8453,0,0,0,0,0,0,-4.7803,-4.7824,-4.787,-4.7897,-4.7915,-4.8044,-4.7962,-4.7961,-4.7992,-4.7984,-4.8012,-4.8013,-4.8002,-4.8097,-4.8113,-4.8175,-4.8059,-4.834,-4.8348,-4.8356,-4.8444,-4.8462,-4.8477,0,0,0,0,0,-4.7796,-4.7893,-4.7873,-4.789,-4.7973,-4.8048,-4.8058,-4.8044,-4.7997,-4.8043,-4.805,-4.8012,-4.8159,-4.8107,-4.8124,-4.8189,-4.8336,-4.8346,-4.8355,-4.8437,-4.8459,-4.8477,0,0,0,0,0,0,-4.7872,-4.7896,-4.7874,-4.7983,-4.8014,-4.8036,-4.8094,-4.8067,-4.8111,-4.8101,-4.808,-4.8087,-4.8184,-4.8195,-4.8137,-4.8307,-4.824,-4.8253,-4.8296,-4.8317,-4.8333,-4.8328,-4.8064,0,0,0,0,0,-4.7901,-4.7961,-4.7978,-4.8073,-4.809,-4.809,-4.8121,-4.8108,-4.8139,-4.8151,-4.8164,-4.8194,-4.8247,-4.8282,-4.8331,-4.8446,-4.8451,-4.8499,-4.8515,-4.8529,-4.8541,-4.8603,-4.8625,-4.8393,-4.8393,-4.8393,0,0,-4.7963,-4.7983,-4.8022,-4.8089,-4.8111,-4.8173,-4.8101,-4.8168,-4.8214,-4.8161,-4.8248,-4.8259,-4.8291,-4.8394,-4.844,-4.8407,-4.8606,-4.8541,-4.8552,-4.8557,-4.8615,-4.8637,-4.8657,-4.84,-4.8398,-4.8397,0,0,-4.8106,-4.8128,-4.8209,-4.8234,-4.827,-4.8269,-4.8289,-4.8316,-4.8321,-4.8409,-4.8371,-4.8423,-4.8515,-4.854,-4.8564,-4.8719,-4.8687,-4.8735,-4.8821,-4.8882,-4.89,-4.8916,-4.8972,-4.8992,-4.8747,-4.8748,-4.8748,0,-4.8177,-4.827,-4.8254,-4.8326,-4.8356,-4.8313,-4.8395,-4.8419,-4.8468,-4.849,-4.8452,-4.8567,-4.8586,-4.8695,-4.8733,-4.8754,-4.8775,-4.8732,-4.8899,-4.8915,-4.893,-4.8983,-4.9004,-4.8753,-4.8753,-4.8752,-4.8752,0,-4.8356,-4.8421,-4.8482,-4.8533,-4.8571,-4.8647,-4.8642,-4.8682,-4.8665,-4.8668,-4.8758,-4.8779,-4.8832,-4.8857,-4.884,-4.8964,-4.8942,-4.8902,-4.8835,-4.8958,-4.9008,-4.9028,-4.8762,-4.876,-4.8758,-4.8756,0,0,-4.8548,-4.8591,-4.8614,-4.8637,-4.8674,-4.8723,-4.8798,-4.8852,-4.8886,-4.8922,-4.8983,-4.9063,-4.9026,-4.9054,-4.904,-4.9094,-4.9216,-4.9047,-4.9047,-4.9078,-4.9354,-4.9385,-4.9408,-4.9195,-4.9198,-4.9201,-4.9352,0,-4.8693,-4.8825,-4.8813,-4.8937,-4.8997,-4.8957,-4.9022,-4.9051,-4.9056,-4.9107,-4.9111,-4.9168,-4.9116,-4.9133,-4.9184,-4.919,-4.9271,-4.9179,-4.9251,-4.9254,-4.9245,-4.9434,-4.9466,-4.9607,-4.9371,-4.9374,-4.9376,0,-4.888,-4.8925,-4.9055,-4.9085,-4.9109,-4.9168,-4.9217,-4.9266,-4.9298,-4.9298,-4.9331,-4.9308,-4.9382,-4.9313,-4.9414,-4.9352,-4.9381,-4.9389,-4.9394,-4.94,-4.9323,-4.9446,-4.9651,-4.9673,-4.9406,-4.9404,-4.9402,0,-4.9009,-4.9101,-4.9191,-4.9212,-4.9248,-4.9291,-4.9307,-4.9336,-4.9369,-4.9412,-4.9433,-4.9483,-4.951,-4.9549,-4.954,-4.949,-4.9644,-4.9574,-4.9646,-4.9647,-4.968,-4.9678,-4.9894,-4.9698,-4.9698,-4.9698,-4.9697,0,-4.9172,-4.9254,-4.925,-4.9306,-4.9396,-4.9381,-4.9471,-4.9482,-4.9508,-4.9564,-4.9532,-4.9585,-4.957,-4.9623,-4.9616,-4.9702,-4.9714,-4.9715,-4.9713,-4.9719,-4.9719,-4.9738,-4.9728,-4.9703,-4.9702,-4.9701,-4.97,0,-4.9331,-4.9332,-4.9428,-4.9455,-4.9463,-4.9529,-4.9551,-4.9603,-4.9606,-4.9678,-4.9694,-4.9698,-4.9759,-4.9754,-4.9821,-4.9816,-4.9923,-4.9908,-4.9913,-4.991,-4.9982,-4.9976,-5.0218,-5.0249,-5.0033,-5.0035,-5.0037,0,-4.9436,-4.9498,-4.9532,-4.9569,-4.9589,-4.9648,-4.9683,-4.9671,-4.9708,-4.9751,-4.9798,-4.9855,-4.9901,-4.9999,-5.0007,-5.0059,-5.0045,-5.0127,-5.0053,-5.0057,-5.0047,-5.0044,-5.0051,-5.0141,-5.0144,-5.0146,-5.0147,0,-4.9622,-4.9619,-4.9672,-4.9725,-4.9768,-4.9808,-4.9845,-4.9876,-4.9868,-4.9912,-4.9974,-5.001,-5.008,-5.0138,-5.0187,-5.0202,-5.0174,-5.0171,-5.019,-5.0197,-5.0198,-5.0199,-4.9953,-5.0165,-5.0163,-5.0162,-5.0161,-5.016,-4.9757,-4.9811,-4.9844,-4.9904,-4.9931,-4.9967,-5.0018,-5.0028,-5.008,-5.0138,-5.0127,-5.0197,-5.0228,-5.0292,-5.0312,-5.0366,-5.0337,-5.0365,-5.0372,-5.0379,-5.0388,-5.0189,-5.0375,-5.0374,-5.0374,-5.0373,-5.0373,0,-4.9942,-4.9962,-5.0017,-5.0071,-5.0118,-5.0089,-5.0128,-5.0169,-5.0232,-5.0264,-5.0311,-5.0383,-5.0439,-5.0452,-5.0506,-5.0547,-5.0535,-5.0561,-5.0558,-5.0562,-5.0411,-5.0389,-5.057,-5.057,-5.057,-5.057,-5.057,-5.057,-5.0044,-5.0134,-5.0136,-5.0239,-5.0258,-5.0328,-5.0354,-5.0386,-5.0412,-5.0495,-5.0542,-5.0551,-5.0576,-5.0631,-5.0681,-5.0684,-5.0705,-5.0737,-5.0734,-5.0593,-5.0573,-5.0554,-5.0534,-5.0741,-5.0742,-5.0881,-5.0882,-5.0883]}]]